Hourly Data Report for September 17, 2017

All times are specified in Local Standard Time (LST). Add 1 hour to adjust for Daylight Saving Time where and when it is observed.

BUCTOUCHE CDA CS
NEW BRUNSWICK

46°25'49.006" N
64°46'05.009" W
35.90 m
8100593
71666
ABT

Download Data

Hourly Data (September 2017)
Hourly Data Report for September 17, 2017
Temp Definition
°C
Dew Point Temp Definition
°C
Rel Hum Definition
%
Wind Dir Definition
10's deg

Wind Spd Definition
km/h
Visibility Definition
km
Stn Press Definition
kPa
Hmdx Definition


Wind Chill Definition


Weather Definition


TIME
00:00 14.3 11.7 84 4 8   101.77     LegendNANA
01:00 14.1 11.7 86 6 5   101.74     LegendNANA
02:00 14.2 11.8 86 9 6   101.70     LegendNANA
03:00 13.9 11.8 87 5 3   101.68     LegendNANA
04:00 14.1 11.9 87 7 3   101.66     LegendNANA
05:00 14.1 12.1 88 8 3   101.68     LegendNANA
06:00 14.2 12.1 87 4 7   101.76     LegendNANA
07:00 14.6 12.4 87 12 4   101.76     LegendNANA
08:00 15.5 12.6 83 9 6   101.77     LegendNANA
09:00 15.3 12.6 84 5 6   101.84     LegendNANA
10:00 15.6 13.8 89 9 8   101.77     LegendNANA
11:00 16.1 12.9 82 10 7   101.79     LegendNANA
12:00 16.4 13.2 81 7 7   101.73     LegendNANA
13:00 16.5 13.4 82 8 8   101.70     LegendNANA
14:00 16.6 13.7 83 9 9   101.66     LegendNANA
15:00 17.2 14.2 82 8 7   101.63     LegendNANA
16:00 17.0 14.1 83 8 8   101.64     LegendNANA
17:00 16.8 14.3 85 7 7   101.65     LegendNANA
18:00 16.7 14.5 87 11 7   101.64     LegendNANA
19:00 16.4 14.7 90 5 7   101.69     LegendNANA
20:00 16.2 14.8 92 8 8   101.72     LegendNANA
21:00 16.1 15.0 93 9 7   101.72     LegendNANA
22:00 16.0 15.1 94 10 6   101.72     LegendNANA
23:00 16.2 15.3 94 9 5   101.73     LegendNANA

Notes on Data Quality.

Legend

  • E = Estimated
  • M = Missing
  • NA = Not Available
  • ‡ = Partner data that is not subject to review by the National Climate Archives
Date modified: